Regional Weather Roundup
Issued by NWS Huntsville, AL

Home | Current Version | Previous Version | Text Only | Print | Product List | Glossary On
Versions: 1 2 3 4 5 6 7 8 9 10 11 12 13 14 15 16 17 18 19 20 21 22 23 24 25 26 27 28 29 30 31 32 33 34 35 36 37 38 39 40 41 42 43 44 45 46 47 48 49 50
000
ASUS44 KHUN 230310
RWRHUN

WEATHER ROUNDUP FOR THE TENNESSEE VALLEY
NATIONAL WEATHER SERVICE HUNTSVILLE AL
1000 PM CDT WED MAR 22 2017

ALZ001>004-230400-
NORTHWEST ALABAMA

CITY           SKY/WX    TMP DP  RH WIND       PRES   REMARKS
COURTLAND HCN    N/A     46 N/A N/A CALM        N/A
RUSSELLVILLE     N/A     52 N/A N/A MISG        N/A
SHOALS AIRPORT CLEAR     52  27  38 NE6       30.31R
SHOALS TVA RES   N/A     54 N/A N/A MISG        N/A
$$

ALZ005>007-016-230400-
NORTH CENTRAL ALABAMA

CITY           SKY/WX    TMP DP  RH WIND       PRES   REMARKS
CULLMAN AG STN   N/A     52 N/A N/A N7          N/A
DECATUR AP     CLEAR     47  32  56 N8        30.31R
HUNTSVILLE AP  CLEAR     51  30  44 N8        30.30R
MERIDIANVILLE  CLEAR     46  34  61 NW3       30.31R
REDSTONE ARSN  CLEAR     49  29  47 N7        30.29R
VINEMONT AP    FAIR      51  27  39 N5        30.30S
$$

ALZ008>010-230400-
NORTHEAST ALABAMA

CITY           SKY/WX    TMP DP  RH WIND       PRES   REMARKS
ALBERTVILLE    CLEAR     50  36  57 N7        30.27R
FORT PAYNE     CLEAR     43  34  70 CALM      30.28R
SCOTTSBORO AP  CLEAR     48  32  53 CALM      30.30S
SCOTTSBORO HCN   N/A     46 N/A N/A MISG        N/A
VALLEY HEAD      N/A     45 N/A N/A MISG        N/A
$$

TNZ076-096-097-230400-
SOUTHEASTERN MIDDLE TENNESSEE

CITY           SKY/WX    TMP DP  RH WIND       PRES   REMARKS
TULLAHOMA      CLEAR     46  14  27 NE7       30.32S
WINCHESTER     CLEAR     46  19  34 N3        30.32R
$$

...SURROUNDING SITES...

CITY           SKY/WX    TMP DP  RH WIND       PRES   REMARKS
ATLANTA        PTCLDY    55  26  32 N7        30.25R
ANNISTON       CLEAR     50  42  74 CALM      30.26R
BIRMINGHAM     CLEAR     59  26  28 NE8       30.28R
CHATTANOOGA    PTCLDY    50  29  44 N5        30.30R
CORINTH        FAIR      54  27  35 NE6       30.28R
DALTON         CLEAR     48  28  46 N6        30.28S
GADSDEN        CLEAR     52  36  54 N6        30.29R
GOLDEN TRNGL   CLEAR    N/A N/A N/A NE9       30.20R
HALEYVILLE     FAIR      51  27  39 NE6       30.30R
JACKSON TN     CLEAR     53  26  35 E10       30.30R
MEMPHIS        NOT AVBL
NASHVILLE      CLEAR     47  20  34 NE9       30.36R
OXFORD MS      FAIR      55  32  41 E10       30.27R
ROME           CLEAR     50  32  50 N3        30.27R
SAVANNAH       CLEAR     52  27  37 NE8       30.29R
TUPELO         CLEAR     58  29  33 NE7       30.26S
TUSCALOOSA     CLEAR     60  37  42 NE9G20    30.25R
$$

...GULF COAST WEATHER...

CITY           SKY/WX    TMP DP  RH WIND       PRES   REMARKS
GULFPORT       CLEAR     70  63  78 W3        30.14R
PASCAGOULA     CLEAR     67  63  87 N3        30.15R
MOBILE         PTCLDY    71  55  56 N7        30.17R
GULF SHORES    CLEAR     70  67  92 W12G18    30.15R
PENSACOLA      MOCLDY    72  60  66 W3        30.14R
DESTIN         CLEAR     76  60  57 N8        30.13R
PANAMA CITY    PTCLDY    70  64  83 N3        30.13R
APPALACHICOLA  CLEAR     68  65  90 NW6       30.11R
$$




USA.gov is the U.S. government's official web portal to all federal, state and local government web resources and services.